Contact Us:
Email: info@sawbill.com
Phone: (218)663-7150
Fax: (218)663-7980
Mail: 4620 Sawbill Trail
Box 2129
Tofte, MN 55615


Powered by
Movable Type 3.15
 
Sawbill Weather History Archives: July 2014
Current Sawbill Weather History | « June 2014 | August 2014 »


Date

High
Temperature

Low
Temperature

Barometric
Pressure

Relative
Humidity 7AM

9 AM
Temperature

Moisture

Snow

7/31/14 72 50 30.03 77% 58 .01"
7/30/14 71 50 30.01 81% 59 .03"
7/29/14 69 47 30.02 86% 50 .25"
7/28/14 70 53 30.04 90% 56 .13"
7/27/14 65 53 30.08 85% 53 0
7/26/14 78 57 29.88 94% 60 .57"
7/25/14 71 55 29.84 93% 64 Trace
7/24/14 72 47 29.96 82% 55 0
7/23/14 71 44 30.00 94% 47 0
7/22/14 70 58 30.14 83% 58 0
7/21/14 87 65 29.82 97% 65 .35"
7/20/14 77 59 29.98 89% 72 .02"
7/19/14 72 58 29.96 90% 59 .02"
7/18/14 74 57 29.96 87% 58 0
7/17/14 73 50 30.04 86% 58 0
7/16/14 70 50 30.02 74% 50 0
7/15/14 65 50 30.04 58% 54 0
7/14/14 58 51 30.02 73% 54 .4"
7/13/14 67 51 29.88 90% 51 .09"
7/12/14 70 52 29.92 65% 57 0
7/11/14 68 57 30.02 88% 57 .09"
7/10/14 72 49 30.02 90% 58 .06"
7/9/14 67 50 30.00 68% 50 .08"
7/8/14 65 46 30.06 84% 49 0
7/7/14 74 50 29.78 95% 50 .5"
7/6/14 73 59 29.76 83% 60 0
7/5/14 71 60 29.82 98% 60 2.51"
7/4/14 73 49 30.10 98% 57 .96"
7/3/14 69 48 30.18 73% 49 0
7/2/14 66 50 30.10 81% 52 0
7/1/14 65 50 29.96 72% 50 0
 


Home I Trip Planning I Rentals and Outfitting I Reservations I Campgrounds I Sawbill Store I Sawbill News I Contact

© 1997 - 2017, Sawbill Canoe Outfitters, Inc. I Privacy Policy